Regional Weather Roundup
Issued by NWS

Home | Current Version | Previous Version | Graphics & Text | Print | Product List | Glossary Off
Versions: 1 2 3 4 5 6 7 8 9 10 11 12 13 14 15 16 17 18 19 20 21 22 23 24 25 26 27 28 29 30 31 32 33 34 35 36 37 38 39 40 41 42 43 44 45 46 47 48 49 50

000
ASUS45 KCYS 011710
RWRWY

WYOMING REGIONAL WEATHER ROUNDUP
NATIONAL WEATHER SERVICE CHEYENNE WY
1100 AM MDT SAT OCT 01 2016

NOTE:  "FAIR" INDICATES FEW OR NO CLOUDS BELOW 12,000 FEET
WITH NO SIGNIFICANT WEATHER AND/OR OBSTRUCTIONS TO VISIBILITY.

WYZ001-011800-
YELLOWSTONE NATIONAL PARK

CITY           SKY/WX    TMP DP  RH WIND       PRES   REMARKS
LK YELLOWSTONE   N/A     52  45  77 CALM      30.22F
W YELLOWSTONE  NOT AVBL

$$
WYZ002>013-054>058-071-098>099-011800-
NORTHERN WYOMING

CITY           SKY/WX    TMP DP  RH WIND       PRES   REMARKS
JACKSON        PTSUNNY   48  43  81 CALM      30.19F
CODY           FAIR      72  43  35 S6        30.04F
GREYBULL       FAIR      64  48  56 SE5       30.01F
WORLAND        FAIR      65  49  56 CALM      30.02F
SHERIDAN       FAIR      70  52  52 N6        29.98F
BUFFALO        FAIR      73  45  36 SE13      30.05F
GILLETTE       FAIR      73  49  42 S6        30.04F
HULETT         FAIR      70  52  52 W3        30.05F
NEWCASTLE      FAIR      68  46  45 CALM      30.06S

$$
WYZ014>020-022>026-101>103-011800-
CENTRAL WYOMING

CITY           SKY/WX    TMP DP  RH WIND       PRES   REMARKS
BIG PINEY      PTSUNNY   51  40  65 CALM      30.24F
PINEDALE       CLOUDY    55  39  54 E5        30.24F
DUBOIS         FAIR      61  39  44 CALM      30.18F
LANDER         FAIR      62  44  51 CALM      30.11F
RIVERTON       FAIR      61  46  57 CALM      30.12F
CASPER         FAIR      69  45  41 SW17      30.12S
DOUGLAS        FAIR      71  42  35 NW5       30.10F

$$
WYZ021-027>030-104>119-011800-
SOUTHERN WYOMING

CITY           SKY/WX    TMP DP  RH WIND       PRES   REMARKS
EVANSTON       FAIR      59  41  51 SW16      30.22S
FORT BRIDGER   FAIR      63  40  43 CALM      30.25S
ROCK SPRINGS   PTSUNNY   59  41  51 CALM      30.22F
DIXON          FAIR      64  44  48 SW9G17    30.27F
RAWLINS        FAIR      66  40  38 W14       30.22F
SARATOGA       FAIR      63  41  45 CALM      30.26S
LARAMIE        FAIR      63  40  42 SW6       30.23F
CHEYENNE       FAIR      72  38  29 VRB7      30.17S
TORRINGTON     FAIR      67  46  47 W6        30.06F
PINE BLUFFS    FAIR      73  37  27 CALM      30.12S

$$



USA.gov is the U.S. government's official web portal to all federal, state and local government web resources and services.